[Iaude] MPEC L89: 2022 LG3 [a=1.77,e=0.42,i=9.8,H=22.5]

mpec at marsden.cfa.harvard.edu mpec at marsden.cfa.harvard.edu
Sat Jun 11 12:28:58 EDT 2022


M.P.E.C. 2022-L89                                 Issued 2022 June 11, 16:27 UT

     The Minor Planet Electronic Circulars contain information on unusual
         minor planets and routine data on comets.  They are published
    on behalf of Division F of the International Astronomical Union by the
          Minor Planet Center, Smithsonian Astrophysical Observatory,
                          Cambridge, MA 02138, U.S.A.

             Prepared using the Tamkin Foundation Computer Network

                              MPC at CFA.HARVARD.EDU
            URL https://www.minorplanetcenter.net/    ISSN 1523-6714

                                    2022 LG3                                    


Observations:
     K22L03G* C2022 06 07.43124222 15 38.542+14 10 28.24         21.59GVEL089G96
     K22L03G  C2022 06 07.43595722 15 38.830+14 10 38.21         21.01GVEL089G96
     K22L03G  C2022 06 07.44066722 15 39.100+14 10 47.89         21.76GVEL089G96
     K22L03G KC2022 06 08.45013922 16 48.443+14 45 12.28         22.31GVEL089I52
     K22L03G KC2022 06 08.45320722 16 48.558+14 45 19.84         22.41GVEL089I52
     K22L03G KC2022 06 08.45627522 16 48.756+14 45 25.38         21.70GVEL089I52
     K22L03G KC2022 06 08.45934422 16 48.961+14 45 32.51         22.38GVEL089I52
     K22L03G KC2022 06 09.36071022 17 48.27 +15 15 14.4          22.0 VuEL089H21
     K22L03G KC2022 06 09.36505622 17 48.52 +15 15 23.8          22.1 VuEL089H21
     K22L03G KC2022 06 09.36925722 17 48.74 +15 15 31.7          22.1 VuEL089H21
     K22L03G DC2022 06 11.34159 22 19 49.51 +16 17 42.5          22.6 GVEL089695
     K22L03G DC2022 06 11.35257 22 19 50.11 +16 18 03.1          22.3 GVEL089695
     K22L03G DC2022 06 11.36355 22 19 50.66 +16 18 23.8          22.4 GVEL089695

Observer details:
695 Kitt Peak.  Observer R. A. Mastaler.  2.3-m f/9 reflector + CCD.
G96 Mt. Lemmon Survey.  Observer A. Serrano.  Measurers E. J. Christensen, D.
    Fay, J. B. Fazekas, D. C. Fuls, A. R. Gibbs, A. D. Grauer, H. Groeller, J.
    K. Hogan, R. A. Kowalski, S. M. Larson, G. J. Leonard, D. Rankin, R. L.
    Seaman, A. Serrano, F. C. Shelly, K. W. Wierzchos.  1.5-m reflector + 10K
    CCD.
H21 Astronomical Research Observatory, Westfield.  Observer R. Holmes.
    Measurers T. Linder, R. Holmes, L. Horn.  1.3-m f/4.0 astrograph + CCD.
I52 Steward Observatory, Mt. Lemmon Station.  Observer D. Rankin.  Measurers
    E. J. Christensen, D. Fay, J. B. Fazekas, D. C. Fuls, A. R. Gibbs, A. D.
    Grauer, H. Groeller, J. K. Hogan, R. A. Kowalski, S. M. Larson, G. J.
    Leonard, D. Rankin, R. L. Seaman, A. Serrano, F. C. Shelly, K. W.
    Wierzchos.  1.0-m prime focus + CCD.

Orbital elements:
2022 LG3                                                 Earth MOID = 0.0214 AU
Epoch 2022 Aug. 9.0 TT = JDT 2459800.5                  Veres                   
M  36.61964              (2000.0)            P               Q                  
n   0.41743193     Peri.    6.32480     -0.47110576     +0.87078776             
a   1.7731505      Node   235.65545     -0.81657225     -0.49084727             
e   0.4185800      Incl.    9.80950     -0.33357028     -0.02824254             
P   2.36           H   22.53          G   0.15           U   9                  
Residuals in seconds of arc
220607 G96  0.0   0.1+    220608 I52  0.0   0.5-    220611 695  0.2-  0.5-
220607 G96  0.1+  0.1+    220608 I52  0.5+  0.4+    220611 695  0.2+  0.5-
220607 G96  0.1-  0.1-    220609 H21  0.2-  0.2-    220611 695  0.0   0.3-
220608 I52  0.4+  1.1-    220609 H21  0.0   0.6+
220608 I52  0.4-  0.2+    220609 H21  0.1-  0.2+

Ephemeris:
2022 LG3                 a,e,i = 1.77, 0.42, 10                  q = 1.0309
Date    TT    R. A. (2000) Decl.     Delta      r    Elong.  Phase     V
2022 05 12    21 18 16.6 -10 27 04   0.1711  1.0310    92.2    78.2    21.5
...
2022 05 27    21 58 08.1 +06 08 57   0.2186  1.0418    91.4    76.4    22.0
...
2022 06 04    22 11 14.9 +12 04 45   0.2456  1.0578    93.4    73.2    22.2
...
2022 06 10    22 18 27.5 +15 36 03   0.2651  1.0741    95.6    70.2    22.3
2022 06 11    22 19 27.9 +16 07 26   0.2683  1.0771    96.1    69.6    22.3
2022 06 12    22 20 25.0 +16 37 48   0.2714  1.0803    96.5    69.1    22.3
...
2022 06 18    22 25 01.3 +19 20 32   0.2895  1.1009    99.4    65.6    22.4
...
2022 06 26    22 28 10.1 +22 10 52   0.3115  1.1329   104.0    60.5    22.4
...
2022 07 11    22 24 46.8 +25 16 53   0.3472  1.2037   114.7    50.1    22.5

M. P. C. Staff               (C) Copyright 2022 MPC           M.P.E.C. 2022-L89




More information about the Iaude mailing list